Preview of NWS' New Version of Forecast
This preview is not operational and should not be used for support decisions.

Regional Weather Roundup (RWR)

Issued by National Weather Service (NWS)

                            
000
ASUS42 KTBW 251116
RWRFL 
FLORIDA REGIONAL WEATHER ROUNDUP
NATIONAL WEATHER SERVICE TAMPA BAY RUSKIN FL
700 AM EDT SAT MAY 25 2019

NOTE: "FAIR" INDICATES FEW OR NO CLOUDS BELOW 12,000 FEET WITH NO
SIGNIFICANT WEATHER AND/OR OBSTRUCTIONS TO VISIBILITY.

FLZ001>010-012>015-112-114-115-251200-
PANHANDLE FLORIDA
  
CITY           SKY/WX    TMP DP  RH WIND       PRES   REMARKS
PENSACOLA      FAIR      72  72 100 N7        30.13R                  
PENSACOLA NAS  FAIR      70  70 100 NW5       30.12R FOG              
MILTON NAS     FOG       69  69 100 N5        30.14  VSB 1            
CRESTVIEW      FOG       64  62  93 CALM      30.15R VSB 1            
DUKE FIELD     FOG       63  63 100 CALM      30.13R VSB 1/8          
VALPARAISO     FAIR      68  67  98 N3        30.12R                  
MARY ESTHER    FAIR      67  66  95 CALM      30.11R                  
TRI COUNTY     FAIR      66  66 100 CALM      30.14R FOG              
PANAMA CITY    FOG       65  64  97 CALM      30.12R VSB 1/2          
APALACHICOLA   FAIR      68  64  87 NE3       30.10R                  

STATION/POSITION SKY/WX   TEMP    WIND        PRES    WAVE   SWELL
                          AIR SEA DIR/SP/G            HT/PER HT/PER
                          (F)     (DEG/KT/KT) (MB)    (FT/S) (FT/S)
30.1N   87.6W                                   N/A     3/ 7
29.2N   88.2W                     170/  8/ 10 1019.8R   4/ 7   3/ 7
PANAMA CITY BEAC           72 83   20/  5/  6 1020.1R
TOWER C          NOT AVBL

$$
FLZ011-016>038-118-127-128-134-139-239-251200-
NORTH FLORIDA
  
CITY           SKY/WX    TMP DP  RH WIND       PRES   REMARKS
MARIANNA       CLOUDY    66  66 100 NW3       30.12R FOG              
TALLAHASSEE    FAIR      65  63  93 CALM      30.11R                  
PERRY          FAIR      68  67  94 CALM      30.12R                  
LIVE OAK       CLEAR     66  64  94 CALM      30.12R                  
CROSS CITY     FAIR      64  63  94 CALM      30.11R                  
LAKE CITY      FAIR      68  63  83 CALM      30.12R                  
GAINESVILLE    FAIR      69  65  86 CALM      30.14R                  
WILLISTON      FAIR      64  63  96 CALM      30.12R                  
PALATKA        FOG      N/A N/A N/A CALM      30.12R VSB 1/2          
MAYPORT NAS    FAIR      73  70  90 SW6       30.11R                  
JACKSONVILLE   FAIR      69  66  90 CALM      30.11R                  
JAX CECIL      CLEAR     64  61  88 VRB3      30.12R                  
FERNANDINA BEA FAIR      71  68  90 W5        30.12R                  
ST AUGUSTINE   FAIR      70  68  93 SW5       30.13R                  
PALM COAST     CLEAR     64  64 100 CALM      30.11R                  

STATION/POSITION SKY/WX   TEMP    WIND        PRES    WAVE   SWELL
                          AIR SEA DIR/SP/G            HT/PER HT/PER
                          (F)     (DEG/KT/KT) (MB)    (FT/S) (FT/S)
SHELL POINT      NOT AVBL
KEATON BEACH               71      50/  3/  4 1019.7R
CEDAR KEY                  78     180/  7/  8 1019.7R
FERNANDINA                 75 83  260/  4/  5 1020.3R
30.7N   81.3W                 80                N/A     2/ 8
MAYPORT                    74 82  230/  7/  9 1019.7R
31.4N   80.9W              79 78  260/ 12/ 12 1019.3R   2/ 7   2/ 7
ST AUGUSTINE               72 80  230/  4/  5 1020.0R

$$
FLZ040-043>046-052-053-057-058-063-144-251200-
INTERIOR CENTRAL FLORIDA
  
CITY           SKY/WX    TMP DP  RH WIND       PRES   REMARKS
OCALA          FAIR      66  65  96 CALM      30.13R                  
LEESBURG       FAIR      73  68  84 S7        30.12R                  
SANFORD        FAIR      71  68  90 CALM      30.11R                  
ORLANDO EXEC   FAIR      71  68  90 CALM      30.11R                  
ORLANDO INTL   FAIR      70  67  90 CALM      30.11R                  
KISSIMMEE      FAIR      70  68  93 CALM      30.12R                  
WINTER HAVEN   FAIR      71  69  93 CALM      30.11R                  
LAKELAND       CLEAR     70  66  88 CALM      30.10R                  
BARTOW         FAIR      66  66 100 CALM      30.10R FOG              
SEBRING        FAIR      65  64  97 N3        30.09R                  
OKEECHOBEE     FAIR      63  63 100 CALM      30.08R FOG              

$$
FLZ041-047-054-059-064-141-147-251200-
EAST CENTRAL FLORIDA
  
CITY           SKY/WX    TMP DP  RH WIND       PRES   REMARKS
ORMOND BEACH   CLEAR     64  64 100 CALM      30.11                   
DAYTONA BEACH  FAIR      68  68 100 CALM      30.11R                  
DELAND         FAIR      66  64  94 CALM      30.11R                  
TITUSVILLE     CLEAR     72  66  83 CALM      30.11                   
CAPE CANAVERAL FAIR      67  61  81 CALM      30.09R                  
PATRICK AFB    FAIR      75  70  83 SE3       30.10R                  
MELBOURNE      FAIR      76  68  76 E3        30.10R                  
VERO BEACH     FAIR      72  66  81 NE3       30.09R                  
FT PIERCE      FAIR      68  64  87 CALM      30.08R                  
STUART         FAIR      73  64  73 E5        30.08R                  

STATION/POSITION SKY/WX   TEMP    WIND        PRES    WAVE   SWELL
                          AIR SEA DIR/SP/G            HT/PER HT/PER
                          (F)     (DEG/KT/KT) (MB)    (FT/S) (FT/S)
28.5N   80.2W              78     110/  4/  8 1019.8
28.9N   78.5W              76 79  140/  4/  6 1019.9    3/ 8   3/ 8
TRIDENT PIER               74 81  120/  3/  5 1020.5R
28.4N   80.5W                 80                N/A     2/ 7
27.5N   80.2W                 77                N/A     3/ 8

$$
FLZ050-056-061-142-242-148-248-149-249-151-251-155-255-
160-260-251200-
WEST CENTRAL FLORIDA
  
CITY           SKY/WX    TMP DP  RH WIND       PRES   REMARKS
CRYSTAL RIVER  FAIR      64  63  94 CALM      30.11R                  
INVERNESS      FAIR      64  64 100 CALM      30.12R                  
BROOKSVILLE    FAIR      65  64  97 CALM      30.12R                  
CLEARWATER AIR FAIR      72  66  83 SE3       30.09R                  
ST PETE CLEARW FAIR      70  67  90 CALM      30.09R                  
TAMPA INTL     FAIR      74  67  78 E3        30.10R                  
TAMPA EXEC     FAIR      64  63  94 CALM      30.11R FOG              
PLANT CITY     FAIR      68  66  94 CALM      30.12R                  
MACDILL AFB    FAIR      70  66  85 E3        30.09R                  
PETER O KNIGHT CLOUDY    72  70  94 E3        30.10R                  
ST PETERSBURG  FAIR      75  70  84 SE8       30.08R                  
SARASOTA       FAIR      70  66  87 E5        30.07R                  
VENICE         FAIR      68  66  94 NE6       30.09R                  

STATION/POSITION SKY/WX   TEMP    WIND        PRES    WAVE   SWELL
                          AIR SEA DIR/SP/G            HT/PER HT/PER
                          (F)     (DEG/KT/KT) (MB)    (FT/S) (FT/S)
27.3N   84.2W                 80                N/A     3/ 4
CLEARWATER BEACH           74 84  120/  4/  6 1019.0R
MIDDLE TAMPA BAY           73     120/  7/  8 1018.9R
VENICE                     69 82   60/  4/  5 1018.6R

$$
FLZ066-069-070-075>078-162-262-165-265-251200-
SOUTHWEST FLORIDA AND KEYS
  
CITY           SKY/WX    TMP DP  RH WIND       PRES   REMARKS
PUNTA GORDA    FAIR      66  64  93 NE5       30.09R FOG              
FT MYERS       FAIR      69  66  90 E6        30.06R                  
SOUTHWEST INTL FAIR      68  64  87 E6        30.07R                  
NAPLES         FAIR      68  65  90 NE8       30.06R                  
MARCO ISLAND   FAIR      68  64  87 NE7       30.07R                  
IMMOKALEE      FAIR      64  63  94 CALM      30.05R                  
MARATHON       FAIR      80  65  59 E9G17     30.02R                  
KEY WEST NAS   FAIR      78  69  73 NE8       30.02R                  
KEY WEST INTL  FAIR      76  70  82 NE8       30.02R                  

STATION/POSITION SKY/WX   TEMP    WIND        PRES    WAVE   SWELL
                          AIR SEA DIR/SP/G            HT/PER HT/PER
                          (F)     (DEG/KT/KT) (MB)    (FT/S) (FT/S)
NAPLES                     71 82              1017.9R
DRY TORTUGAS               79      80/ 19/ 21 1016.6R
SAND KEY                   78                 1016.1R
SOMBRERO KEY               79                 1015.7R

$$
FLZ067-068-071>074-168-172>174-251200-
SOUTHEAST FLORIDA 
  
CITY           SKY/WX    TMP DP  RH WIND       PRES   REMARKS
W PALM BEACH   FAIR      76  65  68 E9        30.07R                  
BOCA RATON     PTCLDY    75  64  69 E9        30.06                   
FT LAUDER-EXEC FAIR      76  65  68 E7        30.06R                  
FT LAUDERDALE  FAIR      76  66  71 NE10      30.04R                  
POMPANO BEACH  FAIR      77  65  66 E9        30.05R                  
PEMBROKE PINES FAIR      75  66  73 NE9       30.06R                  
OPA LOCKA      FAIR      75  64  68 NE7       30.05R                  
MIAMI          FAIR      77  64  64 VRB5      30.04R                  
WEST KENDALL   MOCLDY    74  64  71 NE6       30.04R                  
HOMESTEAD      MOCLDY    77  66  69 NE13      30.03R                  

STATION/POSITION SKY/WX   TEMP    WIND        PRES    WAVE   SWELL
                          AIR SEA DIR/SP/G            HT/PER HT/PER
                          (F)     (DEG/KT/KT) (MB)    (FT/S) (FT/S)
PORT EVERGLADES            78      70/ 10/ 16 1017.3
VIRGINIA KEY               78 82   60/ 13/ 19 1016.5R
LAKE WORTH                 76 80              1019.0R
SETTLEMENT POINT           76      80/ 13/ 14 1018.1R

$$